Time,TemperatureF,DewpointF,PressureIn,WindDirection,WindDirectionDegrees,WindSpeedMPH,WindSpeedGustMPH,Humidity,HourlyPrecipIn,Conditions,Clouds,dailyrainin,SoftwareType,DateUTC
2013-02-05 00:00:00,16.4,4.6,29.93,WNW,287,3.0,8.0,59,0.00,,---,0.00,VWS V13.00,2013-02-05 05:00:00,
2013-02-05 00:05:00,16.3,4.9,29.93,WNW,287,0.0,8.0,60,0.00,,---,0.00,VWS V13.00,2013-02-05 05:05:00,
2013-02-05 00:10:00,16.3,4.9,29.93,West,262,3.0,5.0,60,0.00,,---,0.00,VWS V13.00,2013-02-05 05:10:00,
2013-02-05 00:15:00,16.3,4.9,29.93,WNW,290,2.0,7.0,60,0.00,,---,0.00,VWS V13.00,2013-02-05 05:15:00,
2013-02-05 00:20:00,16.2,5.1,29.93,WSW,256,2.0,7.0,61,0.00,,---,0.00,VWS V13.00,2013-02-05 05:20:00,
2013-02-05 00:25:00,16.2,5.1,29.93,WSW,257,5.0,7.0,61,0.00,,---,0.00,VWS V13.00,2013-02-05 05:25:00,
2013-02-05 00:30:00,16.1,5.0,29.93,West,261,2.0,7.0,61,0.00,,---,0.00,VWS V13.00,2013-02-05 05:30:00,
2013-02-05 00:35:00,16.1,5.0,29.93,WNW,284,1.0,13.0,61,0.00,,---,0.00,VWS V13.00,2013-02-05 05:35:00,
2013-02-05 00:40:00,16.1,5.0,29.93,West,277,4.0,6.0,61,0.00,,---,0.00,VWS V13.00,2013-02-05 05:40:00,
2013-02-05 00:45:00,16.1,5.4,29.93,West,281,3.0,10.0,62,0.00,,---,0.00,VWS V13.00,2013-02-05 05:45:00,
2013-02-05 00:50:00,16.1,5.0,29.93,WNW,285,3.0,10.0,61,0.00,,---,0.00,VWS V13.00,2013-02-05 05:50:00,
2013-02-05 00:55:00,16.2,5.1,29.93,West,259,3.0,10.0,61,0.00,,---,0.00,VWS V13.00,2013-02-05 05:55:00,
2013-02-05 01:00:00,16.2,5.1,29.94,WSW,244,2.0,10.0,61,0.00,,---,0.00,VWS V13.00,2013-02-05 06:00:00,
2013-02-05 01:05:00,16.2,5.1,29.94,WSW,244,3.0,10.0,61,0.00,,---,0.00,VWS V13.00,2013-02-05 06:05:00,
2013-02-05 01:10:00,16.2,5.1,29.94,WSW,244,0.0,2.0,61,0.00,,---,0.00,VWS V13.00,2013-02-05 06:10:00,
2013-02-05 01:15:00,16.1,5.0,29.95,WSW,244,0.0,3.0,61,0.00,,---,0.00,VWS V13.00,2013-02-05 06:15:00,
2013-02-05 01:20:00,16.2,5.1,29.95,WSW,238,1.0,5.0,61,0.00,,---,0.00,VWS V13.00,2013-02-05 06:20:00,
2013-02-05 01:25:00,16.2,5.1,29.95,WSW,238,0.0,5.0,61,0.00,,---,0.00,VWS V13.00,2013-02-05 06:25:00,
2013-02-05 01:30:00,16.0,4.9,29.96,WSW,238,0.0,5.0,61,0.00,,---,0.00,VWS V13.00,2013-02-05 06:30:00,
2013-02-05 01:35:00,15.8,4.8,29.96,WSW,238,1.0,5.0,61,0.00,,---,0.00,VWS V13.00,2013-02-05 06:35:00,
2013-02-05 01:40:00,15.7,5.0,29.96,WSW,238,1.0,2.0,62,0.00,,---,0.00,VWS V13.00,2013-02-05 06:40:00,
2013-02-05 01:45:00,15.3,5.0,29.96,WSW,238,1.0,2.0,63,0.00,,---,0.00,VWS V13.00,2013-02-05 06:45:00,
2013-02-05 01:50:00,15.0,5.0,29.96,WSW,238,3.0,3.0,64,0.00,,---,0.00,VWS V13.00,2013-02-05 06:50:00,
2013-02-05 01:55:00,14.7,5.1,29.96,WSW,238,2.0,4.0,65,0.00,,---,0.00,VWS V13.00,2013-02-05 06:55:00,
2013-02-05 02:00:00,14.4,5.1,29.96,WSW,238,1.0,4.0,66,0.00,,---,0.00,VWS V13.00,2013-02-05 07:00:00,
2013-02-05 02:05:00,14.2,5.3,29.96,WSW,238,2.0,4.0,67,0.00,,---,0.00,VWS V13.00,2013-02-05 07:05:00,
2013-02-05 02:10:00,14.0,5.4,29.97,WSW,238,2.0,3.0,68,0.00,,---,0.00,VWS V13.00,2013-02-05 07:10:00,
2013-02-05 02:15:00,13.9,5.3,29.97,WSW,238,2.0,3.0,68,0.00,,---,0.00,VWS V13.00,2013-02-05 07:15:00,
2013-02-05 02:20:00,13.8,5.5,29.97,WSW,238,2.0,3.0,69,0.00,,---,0.00,VWS V13.00,2013-02-05 07:20:00,
2013-02-05 02:25:00,13.7,5.8,29.97,WSW,238,1.0,3.0,70,0.00,,---,0.00,VWS V13.00,2013-02-05 07:25:00,
2013-02-05 02:30:00,13.6,5.7,29.97,WSW,238,2.0,3.0,70,0.00,,---,0.00,VWS V13.00,2013-02-05 07:30:00,
2013-02-05 02:35:00,13.5,5.6,29.97,WSW,238,1.0,3.0,70,0.00,,---,0.00,VWS V13.00,2013-02-05 07:35:00,
2013-02-05 02:40:00,13.5,5.6,29.96,WSW,238,2.0,3.0,70,0.00,,---,0.00,VWS V13.00,2013-02-05 07:40:00,
2013-02-05 02:45:00,13.5,5.6,29.96,WSW,238,2.0,4.0,70,0.00,,---,0.00,VWS V13.00,2013-02-05 07:45:00,
2013-02-05 02:50:00,13.6,5.7,29.96,WSW,238,3.0,4.0,70,0.00,,---,0.00,VWS V13.00,2013-02-05 07:50:00,
2013-02-05 02:55:00,13.7,5.8,29.96,WSW,238,2.0,4.0,70,0.00,,---,0.00,VWS V13.00,2013-02-05 07:55:00,
2013-02-05 03:00:00,13.8,5.5,29.96,WSW,238,1.0,4.0,69,0.00,,---,0.00,VWS V13.00,2013-02-05 08:00:00,
2013-02-05 03:05:00,13.8,5.5,29.96,WSW,238,2.0,4.0,69,0.00,,---,0.00,VWS V13.00,2013-02-05 08:05:00,
2013-02-05 03:10:00,13.8,5.5,29.96,WSW,238,3.0,4.0,69,0.00,,---,0.00,VWS V13.00,2013-02-05 08:10:00,
2013-02-05 03:15:00,13.7,5.4,29.96,WSW,238,1.0,4.0,69,0.00,,---,0.00,VWS V13.00,2013-02-05 08:15:00,
2013-02-05 03:20:00,13.5,5.2,29.96,WSW,238,1.0,4.0,69,0.00,,---,0.00,VWS V13.00,2013-02-05 08:20:00,
2013-02-05 03:25:00,13.5,5.2,29.97,WSW,238,1.0,4.0,69,0.00,,---,0.00,VWS V13.00,2013-02-05 08:25:00,
2013-02-05 03:30:00,13.4,5.1,29.97,WSW,238,2.0,4.0,69,0.00,,---,0.00,VWS V13.00,2013-02-05 08:30:00,
2013-02-05 03:35:00,13.4,5.5,29.97,WSW,238,2.0,4.0,70,0.00,,---,0.00,VWS V13.00,2013-02-05 08:35:00,
2013-02-05 03:40:00,13.4,5.5,29.97,WSW,238,1.0,3.0,70,0.00,,---,0.00,VWS V13.00,2013-02-05 08:40:00,
2013-02-05 03:45:00,13.3,5.7,29.97,WSW,238,1.0,3.0,71,0.00,,---,0.00,VWS V13.00,2013-02-05 08:45:00,
2013-02-05 03:50:00,13.3,5.7,29.97,WSW,238,2.0,3.0,71,0.00,,---,0.00,VWS V13.00,2013-02-05 08:50:00,
2013-02-05 03:55:00,13.3,5.7,29.97,WSW,238,1.0,3.0,71,0.00,,---,0.00,VWS V13.00,2013-02-05 08:55:00,
2013-02-05 04:00:00,13.4,5.8,29.97,WSW,238,2.0,3.0,71,0.00,,---,0.00,VWS V13.00,2013-02-05 09:00:00,
2013-02-05 04:05:00,13.4,5.8,29.97,WSW,238,0.0,3.0,71,0.00,,---,0.00,VWS V13.00,2013-02-05 09:05:00,
2013-02-05 04:10:00,13.4,5.8,29.97,WSW,238,0.0,3.0,71,0.00,,---,0.00,VWS V13.00,2013-02-05 09:10:00,
2013-02-05 04:15:00,13.4,5.8,29.98,WSW,238,2.0,3.0,71,0.00,,---,0.00,VWS V13.00,2013-02-05 09:15:00,
2013-02-05 04:20:00,13.3,5.7,29.98,WSW,238,0.0,3.0,71,0.00,,---,0.00,VWS V13.00,2013-02-05 09:20:00,
2013-02-05 04:25:00,13.3,5.7,29.98,WSW,238,1.0,3.0,71,0.00,,---,0.00,VWS V13.00,2013-02-05 09:25:00,
2013-02-05 04:30:00,13.2,5.9,29.98,WSW,238,1.0,3.0,72,0.00,,---,0.00,VWS V13.00,2013-02-05 09:30:00,
2013-02-05 04:35:00,13.2,5.9,29.98,WSW,238,1.0,3.0,72,0.00,,---,0.00,VWS V13.00,2013-02-05 09:35:00,
2013-02-05 04:40:00,13.1,5.8,29.98,WSW,238,0.0,3.0,72,0.00,,---,0.00,VWS V13.00,2013-02-05 09:40:00,
2013-02-05 04:45:00,13.0,5.7,29.98,WSW,238,2.0,3.0,72,0.00,,---,0.00,VWS V13.00,2013-02-05 09:45:00,
2013-02-05 04:50:00,13.0,5.7,29.98,WSW,238,1.0,3.0,72,0.00,,---,0.00,VWS V13.00,2013-02-05 09:50:00,
2013-02-05 04:55:00,12.8,5.5,29.98,WSW,238,2.0,3.0,72,0.00,,---,0.00,VWS V13.00,2013-02-05 09:55:00,
2013-02-05 05:00:00,12.6,5.6,29.98,WSW,238,2.0,3.0,73,0.00,,---,0.00,VWS V13.00,2013-02-05 10:00:00,
2013-02-05 05:05:00,12.5,5.5,29.98,WSW,238,1.0,3.0,73,0.00,,---,0.00,VWS V13.00,2013-02-05 10:05:00,
2013-02-05 05:10:00,12.5,5.5,29.98,WSW,238,1.0,3.0,73,0.00,,---,0.00,VWS V13.00,2013-02-05 10:10:00,
2013-02-05 05:15:00,12.5,5.5,29.98,WSW,238,2.0,4.0,73,0.00,,---,0.00,VWS V13.00,2013-02-05 10:15:00,
2013-02-05 05:20:00,12.6,5.6,29.98,WSW,238,1.0,4.0,73,0.00,,---,0.00,VWS V13.00,2013-02-05 10:20:00,
2013-02-05 05:25:00,12.7,5.7,29.98,WSW,238,0.0,4.0,73,0.00,,---,0.00,VWS V13.00,2013-02-05 10:25:00,
2013-02-05 05:30:00,12.7,5.7,29.98,WSW,238,0.0,4.0,73,0.00,,---,0.00,VWS V13.00,2013-02-05 10:30:00,
2013-02-05 05:35:00,12.7,5.4,29.98,WSW,238,1.0,4.0,72,0.00,,---,0.00,VWS V13.00,2013-02-05 10:35:00,
2013-02-05 05:40:00,12.8,5.8,29.98,WSW,238,0.0,2.0,73,0.00,,---,0.00,VWS V13.00,2013-02-05 10:40:00,
2013-02-05 05:45:00,12.8,5.8,29.98,WSW,238,3.0,3.0,73,0.00,,---,0.00,VWS V13.00,2013-02-05 10:45:00,
2013-02-05 05:50:00,12.6,5.6,29.98,WSW,238,2.0,4.0,73,0.00,,---,0.00,VWS V13.00,2013-02-05 10:50:00,
2013-02-05 05:55:00,12.3,5.6,29.98,WSW,238,1.0,4.0,74,0.00,,---,0.00,VWS V13.00,2013-02-05 10:55:00,
2013-02-05 06:00:00,12.2,5.8,29.98,WSW,238,0.0,4.0,75,0.00,,---,0.00,VWS V13.00,2013-02-05 11:00:00,
2013-02-05 06:05:00,12.0,5.6,29.99,WSW,238,2.0,4.0,75,0.00,,---,0.00,VWS V13.00,2013-02-05 11:05:00,
2013-02-05 06:10:00,11.8,5.4,29.99,WSW,238,0.0,2.0,75,0.00,,---,0.00,VWS V13.00,2013-02-05 11:10:00,
2013-02-05 06:15:00,11.7,5.6,29.99,WSW,238,0.0,2.0,76,0.00,,---,0.00,VWS V13.00,2013-02-05 11:15:00,
2013-02-05 06:20:00,11.6,5.5,29.99,WSW,238,1.0,3.0,76,0.00,,---,0.00,VWS V13.00,2013-02-05 11:20:00,
2013-02-05 06:25:00,11.8,5.7,29.99,WSW,239,3.0,5.0,76,0.00,,---,0.00,VWS V13.00,2013-02-05 11:25:00,
2013-02-05 06:30:00,12.5,6.1,29.99,WSW,242,3.0,5.0,75,0.00,,---,0.00,VWS V13.00,2013-02-05 11:30:00,
2013-02-05 06:35:00,13.1,6.4,29.99,WSW,244,2.0,5.0,74,0.00,,---,0.00,VWS V13.00,2013-02-05 11:35:00,
2013-02-05 06:40:00,13.4,6.4,30.00,WSW,248,3.0,5.0,73,0.00,,---,0.00,VWS V13.00,2013-02-05 11:40:00,
2013-02-05 06:45:00,13.5,6.2,30.00,WSW,248,2.0,5.0,72,0.00,,---,0.00,VWS V13.00,2013-02-05 11:45:00,
2013-02-05 06:50:00,13.5,6.2,30.01,WSW,248,0.0,5.0,72,0.00,,---,0.00,VWS V13.00,2013-02-05 11:50:00,
2013-02-05 06:55:00,13.4,6.1,30.01,WSW,248,0.0,5.0,72,0.00,,---,0.00,VWS V13.00,2013-02-05 11:55:00,
2013-02-05 07:00:00,13.2,5.9,30.01,WSW,248,0.0,5.0,72,0.00,,---,0.00,VWS V13.00,2013-02-05 12:00:00,
2013-02-05 07:05:00,13.0,5.7,30.01,WSW,248,0.0,5.0,72,0.00,,---,0.00,VWS V13.00,2013-02-05 12:05:00,
2013-02-05 07:10:00,12.7,5.4,30.01,WSW,248,0.0,1.0,72,0.00,,---,0.00,VWS V13.00,2013-02-05 12:10:00,
2013-02-05 07:15:00,12.7,5.7,30.02,WSW,248,0.0,2.0,73,0.00,,---,0.00,VWS V13.00,2013-02-05 12:15:00,
2013-02-05 07:20:00,12.4,5.7,30.02,WSW,248,0.0,2.0,74,0.00,,---,0.00,VWS V13.00,2013-02-05 12:20:00,
2013-02-05 07:25:00,12.2,5.5,30.02,WSW,248,1.0,2.0,74,0.00,,---,0.00,VWS V13.00,2013-02-05 12:25:00,
2013-02-05 07:30:00,12.0,5.6,30.02,WSW,248,0.0,2.0,75,0.00,,---,0.00,VWS V13.00,2013-02-05 12:30:00,
2013-02-05 07:35:00,11.9,5.5,30.02,WSW,248,0.0,2.0,75,0.00,,---,0.00,VWS V13.00,2013-02-05 12:35:00,
2013-02-05 07:40:00,11.9,5.8,30.03,WSW,248,0.0,0.0,76,0.00,,---,0.00,VWS V13.00,2013-02-05 12:40:00,
2013-02-05 07:45:00,11.9,5.8,30.03,WSW,248,0.0,1.0,76,0.00,,---,0.00,VWS V13.00,2013-02-05 12:45:00,
2013-02-05 07:50:00,11.9,5.5,30.03,WSW,248,0.0,1.0,75,0.00,,---,0.00,VWS V13.00,2013-02-05 12:50:00,
2013-02-05 07:55:00,12.0,5.6,30.03,WSW,248,0.0,1.0,75,0.00,,---,0.00,VWS V13.00,2013-02-05 12:55:00,
2013-02-05 08:00:00,12.1,5.7,30.04,WSW,248,0.0,1.0,75,0.00,,---,0.00,VWS V13.00,2013-02-05 13:00:00,
2013-02-05 08:05:00,12.1,6.0,30.04,WSW,248,0.0,1.0,76,0.00,,---,0.00,VWS V13.00,2013-02-05 13:05:00,
2013-02-05 08:10:00,12.2,8.6,30.05,WSW,248,0.0,0.0,85,0.00,,---,0.00,VWS V13.00,2013-02-05 13:10:00,
2013-02-05 08:15:00,12.3,6.5,30.05,WSW,248,0.0,0.0,77,0.00,,---,0.00,VWS V13.00,2013-02-05 13:15:00,
2013-02-05 08:20:00,12.3,5.9,30.06,WSW,248,0.0,1.0,75,0.00,,---,0.00,VWS V13.00,2013-02-05 13:20:00,
2013-02-05 08:25:00,12.4,5.7,30.06,WSW,248,0.0,1.0,74,0.00,,---,0.00,VWS V13.00,2013-02-05 13:25:00,
2013-02-05 08:30:00,12.6,5.9,30.06,WSW,248,0.0,1.0,74,0.00,,---,0.00,VWS V13.00,2013-02-05 13:30:00,
2013-02-05 08:35:00,13.0,6.0,30.06,WSW,248,0.0,2.0,73,0.00,,---,0.00,VWS V13.00,2013-02-05 13:35:00,
2013-02-05 08:40:00,13.3,5.7,30.06,WSW,248,0.0,0.0,71,0.00,,---,0.00,VWS V13.00,2013-02-05 13:40:00,
2013-02-05 08:45:00,13.5,5.9,30.06,WSW,248,0.0,1.0,71,0.00,,---,0.00,VWS V13.00,2013-02-05 13:45:00,
2013-02-05 08:50:00,13.9,5.9,30.06,WSW,248,1.0,2.0,70,0.00,,---,0.00,VWS V13.00,2013-02-05 13:50:00,
2013-02-05 08:55:00,14.3,6.3,30.06,WSW,248,1.0,2.0,70,0.00,,---,0.00,VWS V13.00,2013-02-05 13:55:00,
2013-02-05 09:00:00,14.9,6.6,30.06,WSW,248,1.0,2.0,69,0.00,,---,0.00,VWS V13.00,2013-02-05 14:00:00,
2013-02-05 09:05:00,15.4,6.7,30.06,WSW,248,1.0,2.0,68,0.00,,---,0.00,VWS V13.00,2013-02-05 14:05:00,
2013-02-05 09:10:00,15.9,6.9,30.06,WSW,248,0.0,3.0,67,0.00,,---,0.00,VWS V13.00,2013-02-05 14:10:00,
2013-02-05 09:15:00,16.3,6.9,30.05,WSW,248,0.0,3.0,66,0.00,,---,0.00,VWS V13.00,2013-02-05 14:15:00,
2013-02-05 09:20:00,16.9,7.5,30.05,WSW,248,0.0,3.0,66,0.00,,---,0.00,VWS V13.00,2013-02-05 14:20:00,
2013-02-05 09:25:00,17.6,8.2,30.05,WSW,248,1.0,3.0,66,0.00,,---,0.00,VWS V13.00,2013-02-05 14:25:00,
2013-02-05 09:30:00,18.0,7.5,30.06,WSW,248,2.0,3.0,63,0.00,,---,0.00,VWS V13.00,2013-02-05 14:30:00,
2013-02-05 09:35:00,18.5,8.4,30.05,WSW,248,0.0,5.0,64,0.00,,---,0.00,VWS V13.00,2013-02-05 14:35:00,
2013-02-05 09:40:00,19.1,7.9,30.05,WSW,248,1.0,1.0,61,0.00,,---,0.00,VWS V13.00,2013-02-05 14:40:00,
2013-02-05 09:45:00,19.3,8.1,30.05,WSW,248,2.0,3.0,61,0.00,,---,0.00,VWS V13.00,2013-02-05 14:45:00,
2013-02-05 09:50:00,19.7,8.1,30.05,WSW,248,3.0,3.0,60,0.00,,---,0.00,VWS V13.00,2013-02-05 14:50:00,
2013-02-05 09:55:00,20.4,8.0,30.05,WSW,248,1.0,5.0,58,0.00,,---,0.00,VWS V13.00,2013-02-05 14:55:00,
2013-02-05 10:00:00,20.6,8.2,30.05,WNW,298,3.0,7.0,58,0.00,,---,0.00,VWS V13.00,2013-02-05 15:00:00,
2013-02-05 10:05:00,20.4,7.6,30.05,WNW,298,2.0,7.0,57,0.00,,---,0.00,VWS V13.00,2013-02-05 15:05:00,
2013-02-05 10:10:00,19.7,7.3,30.05,WNW,298,3.0,4.0,58,0.00,,---,0.00,VWS V13.00,2013-02-05 15:10:00,
2013-02-05 10:15:00,19.4,7.4,30.05,WNW,298,0.0,4.0,59,0.00,,---,0.00,VWS V13.00,2013-02-05 15:15:00,
2013-02-05 10:20:00,19.7,7.3,30.05,WNW,298,2.0,5.0,58,0.00,,---,0.00,VWS V13.00,2013-02-05 15:20:00,
2013-02-05 10:25:00,20.0,8.0,30.05,WNW,298,0.0,5.0,59,0.00,,---,0.00,VWS V13.00,2013-02-05 15:25:00,
2013-02-05 10:30:00,20.3,7.5,30.05,WNW,298,1.0,5.0,57,0.00,,---,0.00,VWS V13.00,2013-02-05 15:30:00,
2013-02-05 10:35:00,20.6,7.8,30.05,WNW,298,3.0,5.0,57,0.00,,---,0.00,VWS V13.00,2013-02-05 15:35:00,
2013-02-05 10:40:00,20.8,7.6,30.06,WNW,298,1.0,3.0,56,0.00,,---,0.00,VWS V13.00,2013-02-05 15:40:00,
2013-02-05 10:45:00,20.7,7.5,30.06,WNW,298,0.0,3.0,56,0.00,,---,0.00,VWS V13.00,2013-02-05 15:45:00,
2013-02-05 10:50:00,20.9,7.7,30.06,WNW,298,2.0,3.0,56,0.00,,---,0.00,VWS V13.00,2013-02-05 15:50:00,
2013-02-05 10:55:00,20.8,7.2,30.05,WNW,298,1.0,3.0,55,0.00,,---,0.00,VWS V13.00,2013-02-05 15:55:00,
2013-02-05 11:00:00,20.6,7.4,30.06,WNW,298,0.0,3.0,56,0.00,,---,0.00,VWS V13.00,2013-02-05 16:00:00,
2013-02-05 11:05:00,20.7,7.5,30.05,WNW,298,0.0,3.0,56,0.00,,---,0.00,VWS V13.00,2013-02-05 16:05:00,
2013-02-05 11:10:00,20.8,7.6,30.05,WNW,298,1.0,3.0,56,0.00,,---,0.00,VWS V13.00,2013-02-05 16:10:00,
2013-02-05 11:15:00,20.8,7.6,30.05,WNW,298,1.0,3.0,56,0.00,,---,0.00,VWS V13.00,2013-02-05 16:15:00,
2013-02-05 11:20:00,20.9,7.3,30.05,WNW,298,0.0,3.0,55,0.00,,---,0.00,VWS V13.00,2013-02-05 16:20:00,
2013-02-05 11:25:00,21.0,7.8,30.05,WNW,298,0.0,3.0,56,0.00,,---,0.00,VWS V13.00,2013-02-05 16:25:00,
2013-02-05 11:30:00,21.3,8.1,30.04,WNW,298,1.0,5.0,56,0.00,,---,0.00,VWS V13.00,2013-02-05 16:30:00,
2013-02-05 11:35:00,21.5,8.2,30.04,WNW,298,1.0,5.0,56,0.00,,---,0.00,VWS V13.00,2013-02-05 16:35:00,
2013-02-05 11:40:00,21.9,8.6,30.03,WNW,298,0.0,1.0,56,0.00,,---,0.00,VWS V13.00,2013-02-05 16:40:00,
2013-02-05 11:45:00,22.4,8.7,30.03,WNW,298,1.0,4.0,55,0.00,,---,0.00,VWS V13.00,2013-02-05 16:45:00,
2013-02-05 11:50:00,23.0,8.9,30.03,WNW,298,1.0,4.0,54,0.00,,---,0.00,VWS V13.00,2013-02-05 16:50:00,
2013-02-05 11:55:00,23.4,8.8,30.03,WNW,298,1.0,5.0,53,0.00,,---,0.00,VWS V13.00,2013-02-05 16:55:00,
2013-02-05 12:00:00,23.5,8.5,30.03,WNW,298,0.0,5.0,52,0.00,,---,0.00,VWS V13.00,2013-02-05 17:00:00,
2013-02-05 12:05:00,23.3,8.3,30.03,WNW,298,1.0,5.0,52,0.00,,---,0.00,VWS V13.00,2013-02-05 17:05:00,
2013-02-05 12:10:00,23.0,8.0,30.03,WNW,298,3.0,3.0,52,0.00,,---,0.00,VWS V13.00,2013-02-05 17:10:00,
2013-02-05 12:15:00,23.2,8.6,30.02,WNW,298,2.0,3.0,53,0.00,,---,0.00,VWS V13.00,2013-02-05 17:15:00,
2013-02-05 12:20:00,23.9,8.9,30.02,WNW,298,0.0,3.0,52,0.00,,---,0.00,VWS V13.00,2013-02-05 17:20:00,
2013-02-05 12:25:00,24.8,9.2,30.02,WNW,298,0.0,3.0,51,0.00,,---,0.00,VWS V13.00,2013-02-05 17:25:00,
2013-02-05 12:30:00,24.9,8.5,30.02,WNW,298,0.0,3.0,49,0.00,,---,0.00,VWS V13.00,2013-02-05 17:30:00,
2013-02-05 12:35:00,25.2,9.2,30.02,WNW,286,3.0,4.0,50,0.00,,---,0.00,VWS V13.00,2013-02-05 17:35:00,
2013-02-05 12:40:00,25.0,9.0,30.02,West,279,1.0,4.0,50,0.00,,---,0.00,VWS V13.00,2013-02-05 17:40:00,
2013-02-05 12:45:00,24.8,7.9,30.01,West,279,0.0,4.0,48,0.00,,---,0.00,VWS V13.00,2013-02-05 17:45:00,
2013-02-05 12:50:00,24.5,8.1,30.01,SW,225,2.0,6.0,49,0.00,,---,0.00,VWS V13.00,2013-02-05 17:50:00,
2013-02-05 12:55:00,24.5,8.1,30.01,SW,227,0.0,6.0,49,0.00,,---,0.00,VWS V13.00,2013-02-05 17:55:00,
2013-02-05 13:00:00,24.8,8.8,30.01,SW,222,5.0,6.0,50,0.00,,---,0.00,VWS V13.00,2013-02-05 18:00:00,
2013-02-05 13:05:00,25.0,8.6,30.00,SW,222,3.0,6.0,49,0.00,,---,0.00,VWS V13.00,2013-02-05 18:05:00,
2013-02-05 13:10:00,25.2,8.7,30.01,SW,223,3.0,4.0,49,0.00,,---,0.00,VWS V13.00,2013-02-05 18:10:00,
2013-02-05 13:15:00,25.0,8.6,30.00,South,186,0.0,8.0,49,0.00,,---,0.00,VWS V13.00,2013-02-05 18:15:00,
2013-02-05 13:20:00,25.2,8.7,30.00,South,191,4.0,8.0,49,0.00,,---,0.00,VWS V13.00,2013-02-05 18:20:00,
2013-02-05 13:25:00,25.4,8.9,30.00,South,191,0.0,8.0,49,0.00,,---,0.00,VWS V13.00,2013-02-05 18:25:00,
2013-02-05 13:30:00,25.7,9.2,30.00,SSE,163,0.0,8.0,49,0.00,,---,0.00,VWS V13.00,2013-02-05 18:30:00,
2013-02-05 13:35:00,25.6,8.6,30.00,South,186,3.0,10.0,48,0.00,,---,0.00,VWS V13.00,2013-02-05 18:35:00,
2013-02-05 13:40:00,25.5,9.0,30.00,South,186,0.0,5.0,49,0.00,,---,0.00,VWS V13.00,2013-02-05 18:40:00,
2013-02-05 13:45:00,26.0,9.0,29.99,South,188,1.0,5.0,48,0.00,,---,0.00,VWS V13.00,2013-02-05 18:45:00,
2013-02-05 13:50:00,26.3,9.3,29.99,SSW,192,1.0,7.0,48,0.00,,---,0.00,VWS V13.00,2013-02-05 18:50:00,
2013-02-05 13:55:00,26.4,9.4,29.99,South,190,1.0,7.0,48,0.00,,---,0.00,VWS V13.00,2013-02-05 18:55:00,
2013-02-05 14:00:00,27.3,9.7,29.99,South,190,3.0,7.0,47,0.00,,---,0.00,VWS V13.00,2013-02-05 19:00:00,
2013-02-05 14:05:00,27.9,10.3,29.99,South,190,1.0,7.0,47,0.00,,---,0.00,VWS V13.00,2013-02-05 19:05:00,
2013-02-05 14:10:00,27.8,9.2,29.99,South,172,2.0,4.0,45,0.00,,---,0.00,VWS V13.00,2013-02-05 19:10:00,
2013-02-05 14:15:00,28.1,10.0,29.99,South,175,2.0,5.0,46,0.00,,---,0.00,VWS V13.00,2013-02-05 19:15:00,
2013-02-05 14:20:00,28.1,9.5,29.99,South,175,2.0,5.0,45,0.00,,---,0.00,VWS V13.00,2013-02-05 19:20:00,
2013-02-05 14:25:00,28.3,10.2,29.99,South,175,1.0,5.0,46,0.00,,---,0.00,VWS V13.00,2013-02-05 19:25:00,
2013-02-05 14:30:00,28.5,9.9,29.99,South,182,4.0,5.0,45,0.00,,---,0.00,VWS V13.00,2013-02-05 19:30:00,
2013-02-05 14:35:00,28.6,10.0,29.99,SSW,194,4.0,6.0,45,0.00,,---,0.00,VWS V13.00,2013-02-05 19:35:00,
2013-02-05 14:40:00,28.3,9.7,29.99,SSW,195,2.0,5.0,45,0.00,,---,0.00,VWS V13.00,2013-02-05 19:40:00,
2013-02-05 14:45:00,28.3,10.2,29.99,SSW,197,1.0,6.0,46,0.00,,---,0.00,VWS V13.00,2013-02-05 19:45:00,
2013-02-05 14:50:00,28.2,9.6,29.99,SSW,197,0.0,6.0,45,0.00,,---,0.00,VWS V13.00,2013-02-05 19:50:00,
2013-02-05 14:55:00,27.9,9.8,29.98,South,184,0.0,6.0,46,0.00,,---,0.00,VWS V13.00,2013-02-05 19:55:00,
2013-02-05 15:00:00,27.9,9.8,29.98,SSW,212,0.0,7.0,46,0.00,,---,0.00,VWS V13.00,2013-02-05 20:00:00,
2013-02-05 15:05:00,27.7,9.6,29.98,SSW,201,1.0,7.0,46,0.00,,---,0.00,VWS V13.00,2013-02-05 20:05:00,
2013-02-05 15:10:00,27.6,9.5,29.98,SSW,196,5.0,5.0,46,0.00,,---,0.00,VWS V13.00,2013-02-05 20:10:00,
2013-02-05 15:15:00,27.8,9.7,29.98,SSW,192,3.0,6.0,46,0.00,,---,0.00,VWS V13.00,2013-02-05 20:15:00,
2013-02-05 15:20:00,27.6,9.5,29.98,SSW,192,0.0,6.0,46,0.00,,---,0.00,VWS V13.00,2013-02-05 20:20:00,
2013-02-05 15:25:00,27.7,9.6,29.98,South,191,2.0,6.0,46,0.00,,---,0.00,VWS V13.00,2013-02-05 20:25:00,
2013-02-05 15:30:00,27.5,9.9,29.98,South,191,1.0,6.0,47,0.00,,---,0.00,VWS V13.00,2013-02-05 20:30:00,
2013-02-05 15:35:00,27.5,10.4,29.98,SSW,201,0.0,6.0,48,0.00,,---,0.00,VWS V13.00,2013-02-05 20:35:00,
2013-02-05 15:40:00,27.5,9.9,29.98,SSW,200,1.0,1.0,47,0.00,,---,0.00,VWS V13.00,2013-02-05 20:40:00,
2013-02-05 15:45:00,27.4,10.3,29.98,South,184,5.0,5.0,48,0.00,,---,0.00,VWS V13.00,2013-02-05 20:45:00,
2013-02-05 15:50:00,27.1,10.0,29.98,SE,144,3.0,6.0,48,0.00,,---,0.00,VWS V13.00,2013-02-05 20:50:00,
2013-02-05 15:55:00,26.8,10.2,29.98,SE,142,2.0,6.0,49,0.00,,---,0.00,VWS V13.00,2013-02-05 20:55:00,
2013-02-05 16:00:00,26.6,10.0,29.98,SE,144,3.0,6.0,49,0.00,,---,0.00,VWS V13.00,2013-02-05 21:00:00,
2013-02-05 16:05:00,26.5,9.9,29.98,SE,146,2.0,6.0,49,0.00,,---,0.00,VWS V13.00,2013-02-05 21:05:00,
2013-02-05 16:10:00,26.4,9.8,29.98,SE,146,0.0,2.0,49,0.00,,---,0.00,VWS V13.00,2013-02-05 21:10:00,
2013-02-05 16:15:00,26.3,10.2,29.98,SE,146,0.0,2.0,50,0.00,,---,0.00,VWS V13.00,2013-02-05 21:15:00,
2013-02-05 16:20:00,26.2,10.6,29.98,SE,146,0.0,2.0,51,0.00,,---,0.00,VWS V13.00,2013-02-05 21:20:00,
2013-02-05 16:25:00,26.0,10.4,29.97,SE,145,0.0,4.0,51,0.00,,---,0.00,VWS V13.00,2013-02-05 21:25:00,
2013-02-05 16:30:00,25.8,10.2,29.97,SE,144,0.0,5.0,51,0.00,,---,0.00,VWS V13.00,2013-02-05 21:30:00,
2013-02-05 16:35:00,25.6,10.4,29.98,SE,144,1.0,5.0,52,0.00,,---,0.00,VWS V13.00,2013-02-05 21:35:00,
2013-02-05 16:40:00,25.4,10.2,29.98,SE,144,0.0,3.0,52,0.00,,---,0.00,VWS V13.00,2013-02-05 21:40:00,
2013-02-05 16:45:00,25.3,10.6,29.98,SE,144,1.0,3.0,53,0.00,,---,0.00,VWS V13.00,2013-02-05 21:45:00,
2013-02-05 16:50:00,25.2,10.9,29.98,SE,144,0.0,3.0,54,0.00,,---,0.00,VWS V13.00,2013-02-05 21:50:00,
2013-02-05 16:55:00,25.0,10.7,29.98,SE,144,0.0,3.0,54,0.00,,---,0.00,VWS V13.00,2013-02-05 21:55:00,
2013-02-05 17:00:00,24.9,10.6,29.98,SE,144,1.0,3.0,54,0.00,,---,0.00,VWS V13.00,2013-02-05 22:00:00,
2013-02-05 17:05:00,24.8,10.9,29.98,SE,144,0.0,3.0,55,0.00,,---,0.00,VWS V13.00,2013-02-05 22:05:00,
2013-02-05 17:10:00,24.7,11.2,29.98,SE,144,0.0,0.0,56,0.00,,---,0.00,VWS V13.00,2013-02-05 22:10:00,
2013-02-05 17:15:00,24.6,11.9,29.98,SE,144,0.0,0.0,58,0.00,,---,0.00,VWS V13.00,2013-02-05 22:15:00,
2013-02-05 17:20:00,24.5,11.9,29.98,SE,144,0.0,0.0,58,0.00,,---,0.00,VWS V13.00,2013-02-05 22:20:00,
2013-02-05 17:25:00,24.4,11.8,29.98,SE,144,0.0,0.0,58,0.00,,---,0.00,VWS V13.00,2013-02-05 22:25:00,
2013-02-05 17:30:00,24.3,12.1,29.97,SE,144,0.0,0.0,59,0.00,,---,0.00,VWS V13.00,2013-02-05 22:30:00,
2013-02-05 17:35:00,24.2,11.9,29.97,SE,144,0.0,0.0,59,0.00,,---,0.00,VWS V13.00,2013-02-05 22:35:00,
2013-02-05 17:40:00,24.1,12.2,29.97,SE,144,0.0,0.0,60,0.00,,---,0.00,VWS V13.00,2013-02-05 22:40:00,
2013-02-05 17:45:00,23.9,11.7,29.97,SE,144,0.0,2.0,59,0.00,,---,0.00,VWS V13.00,2013-02-05 22:45:00,
2013-02-05 17:50:00,23.8,12.0,29.97,SE,144,0.0,2.0,60,0.00,,---,0.00,VWS V13.00,2013-02-05 22:50:00,
2013-02-05 17:55:00,23.7,11.9,29.97,SE,144,0.0,2.0,60,0.00,,---,0.00,VWS V13.00,2013-02-05 22:55:00,
2013-02-05 18:00:00,23.6,11.8,29.97,SE,144,0.0,2.0,60,0.00,,---,0.00,VWS V13.00,2013-02-05 23:00:00,
2013-02-05 18:05:00,23.5,11.7,29.97,SE,144,0.0,2.0,60,0.00,,---,0.00,VWS V13.00,2013-02-05 23:05:00,
2013-02-05 18:10:00,23.5,12.0,29.97,SE,144,0.0,1.0,61,0.00,,---,0.00,VWS V13.00,2013-02-05 23:10:00,
2013-02-05 18:15:00,23.5,11.7,29.97,SE,144,1.0,1.0,60,0.00,,---,0.00,VWS V13.00,2013-02-05 23:15:00,
2013-02-05 18:20:00,23.5,11.7,29.97,SE,144,0.0,2.0,60,0.00,,---,0.00,VWS V13.00,2013-02-05 23:20:00,
2013-02-05 18:25:00,23.5,11.7,29.97,SE,144,3.0,3.0,60,0.00,,---,0.00,VWS V13.00,2013-02-05 23:25:00,
2013-02-05 18:30:00,23.5,11.7,29.97,SE,144,0.0,3.0,60,0.00,,---,0.00,VWS V13.00,2013-02-05 23:30:00,
2013-02-05 18:35:00,23.4,11.6,29.98,SE,144,0.0,4.0,60,0.00,,---,0.00,VWS V13.00,2013-02-05 23:35:00,
2013-02-05 18:40:00,23.5,11.7,29.98,SE,144,1.0,2.0,60,0.00,,---,0.00,VWS V13.00,2013-02-05 23:40:00,
2013-02-05 18:45:00,23.5,11.7,29.98,SE,144,0.0,2.0,60,0.00,,---,0.00,VWS V13.00,2013-02-05 23:45:00,
2013-02-05 18:50:00,23.4,11.9,29.98,SE,144,0.0,2.0,61,0.00,,---,0.00,VWS V13.00,2013-02-05 23:50:00,
2013-02-05 18:55:00,23.3,11.9,29.98,SE,144,2.0,3.0,61,0.00,,---,0.00,VWS V13.00,2013-02-05 23:55:00,
2013-02-05 19:00:00,23.3,11.5,29.98,SE,144,3.0,4.0,60,0.00,,---,0.00,VWS V13.00,2013-02-06 00:00:00,
2013-02-05 19:05:00,23.3,11.9,29.98,SE,144,3.0,5.0,61,0.00,,---,0.00,VWS V13.00,2013-02-06 00:05:00,
2013-02-05 19:10:00,23.2,12.1,29.98,SE,141,4.0,4.0,62,0.00,,---,0.00,VWS V13.00,2013-02-06 00:10:00,
2013-02-05 19:15:00,23.1,11.7,29.98,SE,141,2.0,4.0,61,0.00,,---,0.00,VWS V13.00,2013-02-06 00:15:00,
2013-02-05 19:20:00,23.0,11.9,29.98,SE,144,2.0,4.0,62,0.00,,---,0.00,VWS V13.00,2013-02-06 00:20:00,
2013-02-05 19:25:00,22.9,11.8,29.97,ESE,120,1.0,7.0,62,0.00,,---,0.00,VWS V13.00,2013-02-06 00:25:00,
2013-02-05 19:30:00,22.8,12.1,29.97,ESE,121,2.0,7.0,63,0.00,,---,0.00,VWS V13.00,2013-02-06 00:30:00,
2013-02-05 19:35:00,22.8,12.1,29.97,SE,139,3.0,7.0,63,0.00,,---,0.00,VWS V13.00,2013-02-06 00:35:00,
2013-02-05 19:40:00,22.7,12.4,29.97,SE,140,2.0,4.0,64,0.00,,---,0.00,VWS V13.00,2013-02-06 00:40:00,
2013-02-05 19:45:00,22.6,12.3,29.97,SE,140,2.0,4.0,64,0.00,,---,0.00,VWS V13.00,2013-02-06 00:45:00,
2013-02-05 19:50:00,22.6,12.6,29.97,SE,141,2.0,4.0,65,0.00,,---,0.00,VWS V13.00,2013-02-06 00:50:00,
2013-02-05 19:55:00,22.6,12.6,29.98,SE,139,1.0,4.0,65,0.00,,---,0.00,VWS V13.00,2013-02-06 00:55:00,
2013-02-05 20:00:00,22.5,12.5,29.98,SE,140,1.0,4.0,65,0.00,,---,0.00,VWS V13.00,2013-02-06 01:00:00,
2013-02-05 20:05:00,22.5,12.9,29.98,SE,136,2.0,6.0,66,0.00,,---,0.00,VWS V13.00,2013-02-06 01:05:00,
2013-02-05 20:10:00,22.5,12.9,29.98,SE,142,3.0,5.0,66,0.00,,---,0.00,VWS V13.00,2013-02-06 01:10:00,
2013-02-05 20:15:00,22.4,12.8,29.98,SE,143,1.0,6.0,66,0.00,,---,0.00,VWS V13.00,2013-02-06 01:15:00,
2013-02-05 20:20:00,22.4,13.1,29.98,SE,142,0.0,6.0,67,0.00,,---,0.00,VWS V13.00,2013-02-06 01:20:00,
2013-02-05 20:25:00,22.4,13.1,29.98,SE,142,6.0,6.0,67,0.00,,---,0.00,VWS V13.00,2013-02-06 01:25:00,
2013-02-05 20:30:00,22.3,13.0,29.98,SE,142,2.0,6.0,67,0.00,,---,0.00,VWS V13.00,2013-02-06 01:30:00,
2013-02-05 20:35:00,22.2,12.9,29.98,SE,142,1.0,6.0,67,0.00,,---,0.00,VWS V13.00,2013-02-06 01:35:00,
2013-02-05 20:40:00,22.1,12.8,29.98,SE,142,2.0,3.0,67,0.00,,---,0.00,VWS V13.00,2013-02-06 01:40:00,
2013-02-05 20:45:00,22.0,13.1,29.99,SE,144,0.0,5.0,68,0.00,,---,0.00,VWS V13.00,2013-02-06 01:45:00,
2013-02-05 20:50:00,21.9,13.0,29.99,SE,144,0.0,5.0,68,0.00,,---,0.00,VWS V13.00,2013-02-06 01:50:00,
2013-02-05 20:55:00,21.8,13.2,29.98,SE,143,1.0,5.0,69,0.00,,---,0.00,VWS V13.00,2013-02-06 01:55:00,
2013-02-05 21:00:00,21.8,13.2,29.98,SE,142,1.0,5.0,69,0.00,,---,0.00,VWS V13.00,2013-02-06 02:00:00,
2013-02-05 21:05:00,21.9,13.3,29.99,SE,143,0.0,5.0,69,0.00,,---,0.00,VWS V13.00,2013-02-06 02:05:00,
2013-02-05 21:10:00,21.9,13.3,29.98,SE,143,1.0,3.0,69,0.00,,---,0.00,VWS V13.00,2013-02-06 02:10:00,
2013-02-05 21:15:00,22.0,13.4,29.98,SE,143,1.0,3.0,69,0.00,,---,0.00,VWS V13.00,2013-02-06 02:15:00,
2013-02-05 21:20:00,22.1,13.5,29.98,SE,143,0.0,3.0,69,0.00,,---,0.00,VWS V13.00,2013-02-06 02:20:00,
2013-02-05 21:25:00,22.2,13.6,29.99,SE,143,0.0,3.0,69,0.00,,---,0.00,VWS V13.00,2013-02-06 02:25:00,
2013-02-05 21:30:00,22.2,13.6,29.99,SE,142,2.0,3.0,69,0.00,,---,0.00,VWS V13.00,2013-02-06 02:30:00,
2013-02-05 21:35:00,22.3,13.7,29.98,SE,142,0.0,4.0,69,0.00,,---,0.00,VWS V13.00,2013-02-06 02:35:00,
2013-02-05 21:40:00,22.4,13.8,29.98,SE,143,0.0,1.0,69,0.00,,---,0.00,VWS V13.00,2013-02-06 02:40:00,
2013-02-05 21:45:00,22.4,14.1,29.98,SE,143,1.0,2.0,70,0.00,,---,0.00,VWS V13.00,2013-02-06 02:45:00,
2013-02-05 21:50:00,22.4,14.1,29.98,SE,142,1.0,2.0,70,0.00,,---,0.00,VWS V13.00,2013-02-06 02:50:00,
2013-02-05 21:55:00,22.4,14.1,29.97,SE,143,0.0,2.0,70,0.00,,---,0.00,VWS V13.00,2013-02-06 02:55:00,
2013-02-05 22:00:00,22.4,14.1,29.97,SE,143,0.0,3.0,70,0.00,,---,0.00,VWS V13.00,2013-02-06 03:00:00,
2013-02-05 22:05:00,22.5,14.2,29.97,SE,142,0.0,3.0,70,0.00,,---,0.00,VWS V13.00,2013-02-06 03:05:00,
2013-02-05 22:10:00,22.5,14.2,29.97,SE,143,2.0,3.0,70,0.00,,---,0.00,VWS V13.00,2013-02-06 03:10:00,
2013-02-05 22:15:00,22.5,14.2,29.97,SE,143,1.0,3.0,70,0.00,,---,0.00,VWS V13.00,2013-02-06 03:15:00,
2013-02-05 22:20:00,22.6,14.3,29.96,SE,143,2.0,4.0,70,0.00,,---,0.00,VWS V13.00,2013-02-06 03:20:00,
2013-02-05 22:25:00,22.6,14.3,29.96,SE,142,0.0,5.0,70,0.00,,---,0.00,VWS V13.00,2013-02-06 03:25:00,
2013-02-05 22:30:00,22.6,14.3,29.96,SE,144,2.0,5.0,70,0.00,,---,0.00,VWS V13.00,2013-02-06 03:30:00,
2013-02-05 22:35:00,22.6,14.6,29.96,SE,144,1.0,5.0,71,0.00,,---,0.00,VWS V13.00,2013-02-06 03:35:00,
2013-02-05 22:40:00,22.6,14.6,29.96,SE,144,0.0,4.0,71,0.00,,---,0.00,VWS V13.00,2013-02-06 03:40:00,
2013-02-05 22:45:00,22.6,14.6,29.96,SE,144,0.0,4.0,71,0.00,,---,0.00,VWS V13.00,2013-02-06 03:45:00,
2013-02-05 22:50:00,22.6,14.6,29.96,SE,144,2.0,5.0,71,0.00,,---,0.00,VWS V13.00,2013-02-06 03:50:00,
2013-02-05 22:55:00,22.6,14.9,29.96,SE,144,1.0,5.0,72,0.00,,---,0.00,VWS V13.00,2013-02-06 03:55:00,
2013-02-05 23:00:00,22.6,14.9,29.96,SE,144,2.0,5.0,72,0.00,,---,0.00,VWS V13.00,2013-02-06 04:00:00,
2013-02-05 23:05:00,22.6,14.9,29.96,SE,144,1.0,5.0,72,0.00,,---,0.00,VWS V13.00,2013-02-06 04:05:00,
2013-02-05 23:10:00,22.7,15.1,29.96,SE,144,0.0,2.0,72,0.00,,---,0.00,VWS V13.00,2013-02-06 04:10:00,
2013-02-05 23:15:00,22.7,15.1,29.96,SE,144,0.0,4.0,72,0.00,,---,0.00,VWS V13.00,2013-02-06 04:15:00,
2013-02-05 23:20:00,22.7,15.1,29.96,SE,144,0.0,4.0,72,0.00,,---,0.00,VWS V13.00,2013-02-06 04:20:00,
2013-02-05 23:25:00,22.7,14.7,29.97,SE,144,0.0,4.0,71,0.00,,---,0.00,VWS V13.00,2013-02-06 04:25:00,
2013-02-05 23:30:00,22.7,14.7,29.97,SE,144,0.0,4.0,71,0.00,,---,0.00,VWS V13.00,2013-02-06 04:30:00,
2013-02-05 23:35:00,22.7,15.1,29.97,SE,144,1.0,4.0,72,0.00,,---,0.00,VWS V13.00,2013-02-06 04:35:00,
2013-02-05 23:40:00,22.6,14.9,29.97,SE,144,0.0,1.0,72,0.00,,---,0.00,VWS V13.00,2013-02-06 04:40:00,
2013-02-05 23:45:00,22.6,14.9,29.97,SE,144,0.0,1.0,72,0.00,,---,0.00,VWS V13.00,2013-02-06 04:45:00,
2013-02-05 23:50:00,22.6,14.9,29.97,SE,144,0.0,2.0,72,0.00,,---,0.00,VWS V13.00,2013-02-06 04:50:00,
2013-02-05 23:55:00,22.6,15.3,29.97,SE,144,1.0,2.0,73,0.00,,---,0.00,VWS V13.00,2013-02-06 04:55:00,